FW5345 Weather Reports


time (UTC)temp
C
wind
direction
speed
KPH
gust
KPH
rain 1hr
cm
rain 24hr
cm
rain mn
cm
humidity
%
barometer
mb
20260506073038 9 157 4.8 6.4 0.00 0.00 0.00 91 1015.9
20260506071643 10 143 3.2 6.4 0.00 0.00 0.00 91 1015.9
20260506050108 12 136 3.2 4.8 0.00 0.00 0.00 80 1015.1
20260506043110 15 118 3.2 3.2 0.00 0.00 0.00 74 1014.9
20260506041609 15 112 0.0 3.2 0.00 0.00 0.00 72 1014.9
20260506040038 15 105 0.0 4.8 0.00 0.00 0.00 70 1014.6
20260506033109 17 24 1.6 4.8 0.00 0.00 0.00 65 1014.0
20260506031628 18 37 1.6 8.0 0.00 0.00 0.00 62 1013.9
20260506030037 18 16 4.8 9.7 0.00 0.00 0.00 61 1013.8
20260506024535 19 16 8.0 12.9 0.00 0.00 0.00 59 1013.5
20260506023034 20 20 9.7 17.7 0.00 0.00 0.00 56 1013.4
20260506021536 21 17 9.7 16.1 0.00 0.00 0.00 55 1013.3
20260506020035 21 18 11.3 17.7 0.00 0.00 0.00 54 1013.2
20260506013034 23 15 11.3 17.7 0.00 0.00 0.00 50 1013.0
20260506010034 24 316 6.4 12.9 0.00 0.00 0.00 46 1012.9
20260506004536 23 305 8.0 19.3 0.00 0.00 0.00 47 1013.0
20260506003035 24 314 8.0 19.3 0.00 0.00 0.00 49 1012.9
20260506001534 23 6 11.3 22.5 0.00 0.00 0.00 53 1012.9
20260506000036 23 18 11.3 22.5 0.00 0.00 0.00 52 1013.0
20260505234534 23 15 11.3 20.9 0.00 0.00 0.00 53 1013.1
20260505233109 23 15 11.3 20.9 0.00 0.00 0.00 53 1013.2
20260505231536 23 12 11.3 19.3 0.00 0.00 0.00 53 1013.2
20260505230036 23 17 9.7 17.7 0.00 0.00 0.00 53 1013.3
20260505223035 22 21 11.3 20.9 0.00 0.00 0.00 53 1013.5
20260505221536 23 11 11.3 17.7 0.00 0.00 0.00 53 1013.6
20260505220110 23 13 9.7 17.7 0.00 0.00 0.00 52 1013.7
20260505214530 22 18 9.7 16.1 0.00 0.00 0.00 53 1013.8
20260505213151 22 9 9.7 17.7 0.00 0.00 0.00 53 1013.9
20260505211535 22 13 11.3 19.3 0.00 0.00 0.00 54 1013.9
20260505210036 22 11 8.0 19.3 0.00 0.00 0.00 54 1014.0
20260505204531 21 9 9.7 16.1 0.00 0.00 0.00 55 1014.2
20260505203110 21 5 9.7 17.7 0.00 0.00 0.00 55 1014.3
20260505201533 21 11 9.7 16.1 0.00 0.00 0.00 55 1014.3
20260505200143 21 3 9.7 19.3 0.00 0.00 0.00 53 1014.3
20260505194531 21 7 8.0 19.3 0.00 0.00 0.00 52 1014.4
20260505193032 21 11 8.0 19.3 0.00 0.00 0.00 54 1014.5
20260505191536 20 27 6.4 16.1 0.00 0.00 0.00 55 1014.6
20260505190035 20 1 6.4 12.9 0.00 0.00 0.00 55 1014.6
20260505184529 20 2 8.0 16.1 0.00 0.00 0.00 55 1014.7
20260505183033 20 9 8.0 16.1 0.00 0.00 0.00 55 1014.8
20260505174530 18 7 6.4 16.1 0.00 0.00 0.00 59 1014.6
20260505173035 18 4 6.4 11.3 0.00 0.00 0.00 60 1014.6
20260505171535 18 354 4.8 11.3 0.00 0.00 0.00 61 1014.6
20260505170032 17 6 4.8 9.7 0.00 0.00 0.00 62 1014.6
20260505164530 17 3 6.4 11.3 0.00 0.00 0.00 64 1014.5
20260505163034 16 356 6.4 12.9 0.00 0.00 0.00 67 1014.5
20260505153035 13 1 4.8 9.7 0.00 0.00 0.00 78 1014.5
20260505150109 12 25 3.2 8.0 0.00 0.00 0.00 80 1014.3
20260505123109 8 154 4.8 8.0 0.00 0.00 0.00 90 1013.3
20260505121532 8 180 4.8 6.4 0.00 0.00 0.00 89 1013.3
20260505120036 8 181 3.2 4.8 0.00 0.00 0.00 89 1013.3
20260505114535 9 166 3.2 6.4 0.00 0.00 0.00 89 1013.2
20260505113029 9 162 3.2 6.4 0.00 0.00 0.00 88 1013.2
20260505111537 9 157 1.6 6.4 0.00 0.00 0.00 86 1013.0
20260505101536 10 166 4.8 6.4 0.00 0.00 0.00 84 1012.8
20260505100036 10 170 3.2 8.0 0.00 0.00 0.00 83 1012.8
20260505094536 11 169 3.2 6.4 0.00 0.00 0.00 80 1012.8
20260505093037 11 171 1.6 8.0 0.00 0.00 0.00 78 1012.7
20260505091536 12 169 1.6 4.8 0.00 0.00 0.00 77 1012.6
20260505090110 12 196 1.6 8.0 0.00 0.00 0.00 76 1012.5
20260505084536 12 148 1.6 9.7 0.00 0.00 0.00 75 1012.5
20260505083035 12 124 3.2 9.7 0.00 0.00 0.00 74 1012.5
20260505081533 12 134 6.4 11.3 0.00 0.00 0.00 75 1012.5